Weather History for EGVA - December, 2013

Change the Weather History Date:

Monday, December 9, 2013

  Actual Average Record
Temperature  
Mean Temperature 42 °F -  
Max Temperature 51 °F 46 °F 57 °F (2016)
Min Temperature 32 °F 34 °F 22 °F (2010)
Degree Days  
Heating Degree Days 24    
Moisture  
Dew Point 39 °F    
Average Humidity 100    
Maximum Humidity 100    
Minimum Humidity 93    
Precipitation  
Precipitation 0.00 in - - ()
Sea Level Pressure  
Sea Level Pressure 30.36 in    
Wind  
Wind Speed 6 mph ()    
Max Wind Speed 13 mph    
Max Gust Speed -    
Visibility 4.2 miles    
Events Fog    
Averages and records for this station are not official NWS values.
T = Trace of Precipitation, MM = Missing Value Source: Averaged Metar Reports

Daily Weather History Graph

Daily Weather History Graph

Search for Another Location

Airport or City:

Trip Planner

Search our weather history database for the weather conditions in past years. The results will help you decide how hot, cold, wet, or windy it might be!

Date:

Astronomy

Dec. 09, 2013 Rise Set
Actual Time 8:01 AM GMT 3:57 PM GMT
Civil Twilight 7:21 AM GMT 4:37 PM GMT
Nautical Twilight 6:38 AM GMT 5:20 PM GMT
Astronomical Twilight 5:57 AM GMT 6:01 PM GMT
Moon 12:06 PM GMT (12/9) No Moon Set
Length of Visible Light 9h 16m
Length of Day
7h 55m
Waxing Crescent, 48% of the Moon is Illuminated
Dec 9
Waxing Crescent
Dec 9
First Quarter
Dec 17
Full
Dec 25
Last Quarter
Jan 1
New

Hourly Weather History & Observations

Time (GMT) Temp. Windchill Dew Point Humidity Pressure Visibility Wind Dir Wind Speed Gust Speed Precip Events Conditions
12:05 AM 44.6 °F 39.7 °F 44.6 °F 100% 30.29 in 6.2 mi SW 9.2 mph - N/A   Mostly Cloudy
12:10 AM 44.6 °F 38.8 °F 44.6 °F 100% 30.29 in 6.2 mi SW 11.5 mph - N/A   Scattered Clouds
12:19 AM 44.6 °F 39.2 °F 44.6 °F 100% 30.29 in 6.2 mi SW 10.4 mph - N/A   Mostly Cloudy
12:31 AM 44.6 °F 40.2 °F 44.6 °F 100% 30.29 in 6.2 mi SW 8.1 mph - N/A   Scattered Clouds
12:58 AM 43.2 °F 37.9 °F 43.2 °F 100% 30.30 in 6.2 mi WSW 9.2 mph - N/A   Clear
1:58 AM 44.1 °F 37.7 °F 43.7 °F 99% 30.31 in 6.2 mi WSW 12.7 mph - N/A   Clear
2:58 AM 41.7 °F 36.1 °F 41.5 °F 99% 30.32 in 6.2 mi WSW 9.2 mph - N/A   Clear
3:58 AM 42.8 °F 36.6 °F 42.8 °F 100% 30.32 in 6.2 mi SW 11.5 mph - N/A   Scattered Clouds
4:00 AM 42.8 °F 37.0 °F 42.8 °F 100% 30.30 in 6.2 mi SW 10.4 mph - N/A   Mostly Cloudy
4:08 AM 42.8 °F 37.0 °F 42.8 °F 100% 30.30 in 6.2 mi SW 10.4 mph - N/A   Scattered Clouds
4:39 AM 42.8 °F 37.0 °F 42.8 °F 100% 30.30 in 6.2 mi SW 10.4 mph - N/A   Mostly Cloudy
4:52 AM 42.8 °F 36.6 °F 42.8 °F 100% 30.30 in 6.2 mi SW 11.5 mph - N/A   Mostly Cloudy
4:56 AM 42.8 °F 37.0 °F 42.8 °F 100% 30.31 in 6.2 mi SW 10.4 mph - N/A   Mostly Cloudy
4:58 AM 42.8 °F 37.0 °F 42.8 °F 100% 30.33 in 6.2 mi SW 10.4 mph - N/A   Overcast
5:58 AM 42.8 °F 38.0 °F 42.8 °F 100% 30.34 in 6.2 mi SW 8.1 mph - N/A   Mostly Cloudy
6:02 AM 42.8 °F 37.5 °F 42.8 °F 100% 30.32 in 6.2 mi SW 9.2 mph - N/A   Mostly Cloudy
6:10 AM 42.8 °F 38.0 °F 42.8 °F 100% 30.32 in 6.2 mi SW 8.1 mph - N/A   Scattered Clouds
6:20 AM 42.8 °F 37.0 °F 42.8 °F 100% 30.32 in 6.2 mi SW 10.4 mph - N/A   Mostly Cloudy
6:24 AM 42.8 °F 38.0 °F 42.8 °F 100% 30.32 in 6.2 mi SW 8.1 mph - N/A   Mostly Cloudy
6:53 AM 42.8 °F 38.0 °F 42.8 °F 100% 30.33 in 6.2 mi SW 8.1 mph - N/A   Scattered Clouds
6:57 AM 42.8 °F 38.0 °F 42.8 °F 100% 30.33 in 6.2 mi SW 8.1 mph - N/A   Mostly Cloudy
6:58 AM 42.8 °F 38.0 °F 42.8 °F 100% 30.35 in 6.2 mi SW 8.1 mph - N/A   Mostly Cloudy
7:00 AM 42.8 °F 38.0 °F 42.8 °F 100% 30.33 in 6.2 mi WSW 8.1 mph - N/A   Mostly Cloudy
7:47 AM 42.8 °F 40.1 °F 42.8 °F 100% 30.34 in 6.2 mi SW 4.6 mph - N/A   Scattered Clouds
7:58 AM 41.5 °F 37.8 °F 41.5 °F 100% 30.37 in 6.2 mi WSW 5.8 mph - N/A   Partly Cloudy
8:17 AM 41.0 °F 37.1 °F 41.0 °F 100% 30.35 in 6.2 mi WSW 5.8 mph - N/A   Mostly Cloudy
8:58 AM 43.0 °F - 43.0 °F 100% 30.39 in 6.2 mi SW 2.3 mph - N/A   Overcast
9:07 AM 42.8 °F - 42.8 °F 100% 30.37 in 6.2 mi WSW 2.3 mph - N/A   Overcast
9:18 AM 42.8 °F - 42.8 °F 100% 30.37 in 6.2 mi Calm Calm - N/A   Overcast
9:45 AM 44.6 °F - 44.6 °F 100% 30.37 in 6.2 mi NW 1.2 mph - N/A   Overcast
9:58 AM 45.1 °F 43.7 °F 45.1 °F 100% 30.40 in 6.2 mi SW 3.5 mph - N/A   Mostly Cloudy
10:06 AM 46.4 °F 42.9 °F 46.4 °F 100% 30.38 in 6.2 mi SW 6.9 mph - N/A   Scattered Clouds
10:52 AM 48.2 °F - 48.2 °F 100% 30.37 in 6.2 mi SW 5.8 mph - N/A   Mostly Cloudy
10:58 AM 47.7 °F - 47.7 °F 100% 30.39 in 6.2 mi SW 6.9 mph - N/A   Mostly Cloudy
11:06 AM 48.2 °F - 48.2 °F 100% 30.36 in 6.2 mi SW 5.8 mph - N/A   Scattered Clouds
11:58 AM 48.7 °F - 48.6 °F 99% 30.38 in 6.2 mi SW 8.1 mph - N/A   Scattered Clouds
12:10 PM 48.2 °F - 48.2 °F 100% 30.36 in 6.2 mi SW 6.9 mph - N/A   Mostly Cloudy
12:13 PM 48.2 °F - 48.2 °F 100% 30.36 in 6.2 mi WSW 9.2 mph - N/A   Scattered Clouds
12:14 PM 48.2 °F - 48.2 °F 100% 30.36 in 6.2 mi SW 8.1 mph - N/A   Mostly Cloudy
12:58 PM 50.0 °F - 49.8 °F 99% 30.37 in 6.2 mi WSW 8.1 mph - N/A   Overcast
1:26 PM 51.8 °F - 50.0 °F 94% 30.35 in 6.2 mi SW 10.4 mph - N/A   Scattered Clouds
1:58 PM 51.4 °F - 50.9 °F 98% 30.36 in 6.2 mi SW 6.9 mph - N/A   Clear
2:58 PM 48.7 °F - 48.6 °F 99% 30.37 in 6.2 mi SW 5.8 mph - N/A   Clear
3:58 PM 46.0 °F 43.9 °F 45.9 °F 99% 30.36 in 6.2 mi SSW 4.6 mph - N/A   Clear
4:58 PM 42.8 °F 39.3 °F 42.4 °F 99% 30.37 in 6.2 mi South 5.8 mph - N/A   Clear
5:53 PM 42.8 °F 41.1 °F 42.8 °F 100% 30.36 in 6.2 mi South 3.5 mph - N/A   Mostly Cloudy
5:58 PM 42.8 °F 41.1 °F 42.8 °F 100% 30.38 in 6.2 mi South 3.5 mph - N/A   Scattered Clouds
6:58 PM 39.4 °F - 39.2 °F 99% 30.38 in 6.2 mi Calm Calm - N/A   Clear
7:27 PM 39.2 °F - 39.2 °F 100% 30.37 in 5.0 mi SE 2.3 mph - N/A   Clear
7:37 PM 39.2 °F - 39.2 °F 100% 30.37 in 5.0 mi ENE 1.2 mph - N/A   Clear
7:38 PM 39.2 °F - 39.2 °F 100% 30.36 in 5.0 mi Calm Calm - N/A   Clear
7:45 PM 37.4 °F - 37.4 °F 100% 30.37 in 3.7 mi Calm Calm - N/A   Clear
7:46 PM 37.4 °F - 37.4 °F 100% 30.37 in - Calm Calm - N/A   Clear
7:47 PM 37.4 °F - 35.6 °F 93% 30.37 in - Calm Calm - N/A   Clear
7:48 PM 35.6 °F - 35.6 °F 100% 30.37 in 2.5 mi Calm Calm - N/A   Clear
7:49 PM 35.6 °F - 35.6 °F 100% 30.37 in 2.5 mi ENE 1.2 mph - N/A   Clear
7:50 PM 35.6 °F - 35.6 °F 100% 30.37 in - East 1.2 mph - N/A   Clear
7:51 PM 35.6 °F - 35.6 °F 100% 30.37 in 1.5 mi East 1.2 mph - N/A   Clear
7:52 PM 35.6 °F - 35.6 °F 100% 30.37 in 1.2 mi ENE 1.2 mph - N/A   Clear
7:53 PM 35.6 °F - 35.6 °F 100% 30.37 in 1.0 mi Calm Calm - N/A   Clear
7:54 PM 35.6 °F - 33.8 °F 93% 30.37 in 1.0 mi Calm Calm - N/A   Clear
7:55 PM 33.8 °F - 33.8 °F 100% 30.37 in 0.7 mi Calm Calm - N/A   Clear
7:57 PM 33.8 °F - 33.8 °F 100% 30.37 in 0.7 mi ENE 1.2 mph - N/A   Clear
7:58 PM 33.8 °F - 33.8 °F 100% 30.37 in 0.5 mi ENE 2.3 mph - N/A Fog Fog
8:07 PM 35.6 °F - 35.6 °F 100% 30.37 in 0.7 mi East 2.3 mph - N/A   Clear
8:08 PM 35.6 °F - 35.6 °F 100% 30.37 in 0.7 mi East 1.2 mph - N/A   Clear
8:09 PM 35.6 °F - 35.6 °F 100% 30.37 in 1.0 mi East 1.2 mph - N/A   Clear
8:10 PM 35.6 °F - 35.6 °F 100% 30.37 in 1.0 mi East 2.3 mph - N/A   Clear
8:11 PM 35.6 °F - 35.6 °F 100% 30.37 in 1.2 mi East 1.2 mph - N/A   Clear
8:13 PM 35.6 °F - 35.6 °F 100% 30.37 in 1.5 mi East 1.2 mph - N/A   Clear
8:14 PM 35.6 °F - 35.6 °F 100% 30.37 in - ENE 1.2 mph - N/A   Clear
8:15 PM 35.6 °F - 35.6 °F 100% 30.37 in - ENE 1.2 mph - N/A   Clear
8:20 PM 35.6 °F - 35.6 °F 100% 30.37 in - East 2.3 mph - N/A   Clear
8:21 PM 35.6 °F - 35.6 °F 100% 30.37 in - ESE 2.3 mph - N/A   Clear
8:22 PM 35.6 °F - 35.6 °F 100% 30.37 in - ESE 2.3 mph - N/A   Clear
8:23 PM 35.6 °F - 35.6 °F 100% 30.37 in 2.5 mi ESE 2.3 mph - N/A   Clear
8:24 PM 35.6 °F - 35.6 °F 100% 30.37 in - ESE 2.3 mph - N/A   Clear
8:26 PM 35.6 °F - 35.6 °F 100% 30.37 in 1.7 mi ESE 2.3 mph - N/A   Clear
8:28 PM 35.6 °F - 35.6 °F 100% 30.37 in - ESE 2.3 mph - N/A   Clear
8:33 PM 35.6 °F 32.8 °F 35.6 °F 100% 30.37 in 2.5 mi ESE 3.5 mph - N/A   Clear
8:34 PM 35.6 °F 32.8 °F 35.6 °F 100% 30.37 in 2.5 mi ESE 3.5 mph - N/A   Clear
8:37 PM 35.6 °F 32.8 °F 35.6 °F 100% 30.37 in 3.7 mi ESE 3.5 mph - N/A   Clear
8:58 PM 35.1 °F 32.2 °F 35.1 °F 100% 30.40 in 3.7 mi ESE 3.5 mph - N/A   Clear
9:02 PM 33.8 °F 30.8 °F 33.8 °F 100% 30.37 in - SE 3.5 mph - N/A   Clear
9:03 PM 33.8 °F 29.6 °F 33.8 °F 100% 30.37 in - SE 4.6 mph - N/A   Clear
9:04 PM 33.8 °F 29.6 °F 33.8 °F 100% 30.37 in 1.5 mi SE 4.6 mph - N/A   Clear
9:05 PM 33.8 °F 29.6 °F 33.8 °F 100% 30.37 in 1.0 mi SE 4.6 mph - N/A   Clear
9:06 PM 33.8 °F 29.6 °F 33.8 °F 100% 30.37 in 0.7 mi SE 4.6 mph - N/A   Clear
9:08 PM 33.8 °F 30.8 °F 33.8 °F 100% 30.37 in 0.5 mi SE 3.5 mph - N/A Fog Fog
9:09 PM 33.8 °F 30.8 °F 33.8 °F 100% 30.37 in 0.5 mi SE 3.5 mph - N/A Fog Fog
9:13 PM 32.0 °F 27.5 °F 32.0 °F 100% 30.37 in 0.2 mi SE 4.6 mph - N/A Fog Fog
9:14 PM 32.0 °F 27.5 °F 32.0 °F 100% 30.37 in 0.5 mi SE 4.6 mph - N/A Fog Fog
9:22 PM 32.0 °F 27.5 °F 32.0 °F 100% 30.37 in 0.7 mi SE 4.6 mph - N/A   Clear
9:26 PM 32.0 °F 27.5 °F 32.0 °F 100% 30.37 in 0.7 mi SE 4.6 mph - N/A   Clear
9:27 PM 32.0 °F 28.7 °F 32.0 °F 100% 30.37 in 1.0 mi SE 3.5 mph - N/A   Clear
9:28 PM 32.0 °F 28.7 °F 32.0 °F 100% 30.37 in 1.2 mi SE 3.5 mph - N/A   Clear
9:30 PM 33.8 °F 30.8 °F 33.8 °F 100% 30.37 in 1.5 mi SSE 3.5 mph - N/A   Clear
9:31 PM 33.8 °F 30.8 °F 33.8 °F 100% 30.37 in 1.7 mi SE 3.5 mph - N/A   Clear
9:32 PM 33.8 °F 30.8 °F 33.8 °F 100% 30.37 in - SE 3.5 mph - N/A   Clear
9:33 PM 33.8 °F 30.8 °F 33.8 °F 100% 30.37 in - SE 3.5 mph - N/A   Clear
9:35 PM 35.6 °F - 35.6 °F 100% 30.37 in 5.0 mi SE 2.3 mph - N/A   Clear
9:58 PM 36.0 °F 33.3 °F 36.0 °F 100% 30.39 in 6.2 mi SE 3.5 mph - N/A   Clear
10:40 PM 35.6 °F - 35.6 °F 100% 30.37 in 5.0 mi Calm Calm - N/A   Clear
10:42 PM 35.6 °F - 35.6 °F 100% 30.37 in - Calm Calm - N/A   Clear
10:43 PM 35.6 °F - 35.6 °F 100% 30.37 in 1.7 mi Calm Calm - N/A   Clear
10:44 PM 35.6 °F - 35.6 °F 100% 30.37 in 1.2 mi NW 1.2 mph - N/A   Clear
10:52 PM 35.6 °F - 35.6 °F 100% 30.37 in 1.5 mi WSW 1.2 mph - N/A   Scattered Clouds
10:53 PM 35.6 °F - 35.6 °F 100% 30.37 in - WSW 1.2 mph - N/A   Scattered Clouds
10:54 PM 35.6 °F - 35.6 °F 100% 30.37 in - West 1.2 mph - N/A   Scattered Clouds
10:55 PM 35.6 °F - 35.6 °F 100% 30.37 in 3.7 mi West 1.2 mph - N/A   Scattered Clouds
10:58 PM 35.6 °F - 35.6 °F 100% 30.39 in 5.6 mi SW 2.3 mph - N/A   Scattered Clouds
10:59 PM 35.6 °F - 35.6 °F 100% 30.37 in 6.2 mi SSW 2.3 mph - N/A   Mostly Cloudy
11:12 PM 33.8 °F - 33.8 °F 100% 30.38 in - ESE 1.2 mph - N/A   Overcast
11:13 PM 33.8 °F - 33.8 °F 100% 30.37 in 2.5 mi East 1.2 mph - N/A   Overcast
11:16 PM 33.8 °F - 33.8 °F 100% 30.37 in - Calm Calm - N/A   Overcast
11:21 PM 35.6 °F - 35.6 °F 100% 30.38 in 2.5 mi Calm Calm - N/A   Mostly Cloudy
11:23 PM 35.6 °F - 35.6 °F 100% 30.37 in 5.0 mi Calm Calm - N/A   Mostly Cloudy
11:24 PM 35.6 °F - 35.6 °F 100% 30.37 in 5.0 mi Calm Calm - N/A   Mostly Cloudy
11:33 PM 37.4 °F - 37.4 °F 100% 30.38 in 6.2 mi ENE 1.2 mph - N/A   Scattered Clouds
11:58 PM 35.6 °F 29.9 °F 35.6 °F 100% 30.39 in 5.0 mi ESE 6.9 mph - N/A   Clear